Regional Weather Roundup
Issued by NWS Albany, NY

Home | Current Version | Previous Version | Text Only | Print | Product List | Glossary On
Versions: 1 2 3 4 5 6 7 8 9 10 11 12 13 14 15 16 17 18 19 20 21 22 23 24 25 26 27 28 29 30 31 32 33 34 35 36 37 38 39 40 41 42 43 44 45 46 47 48 49 50
000
ASUS41 KALY 172210
RWRALY

NEW YORK STATE HOURLY WEATHER ROUNDUP
NATIONAL WEATHER SERVICE ALBANY NY
600 PM EDT FRI APR 17 2015

NOTE: "FAIR" INDICATES FEW OR NO CLOUDS BELOW 12,000 FEET WITH NO
SIGNIFICANT WEATHER AND/OR NO OBSTRUCTIONS TO VISIBILITY.

NYZ032-033-038>043-046>054-057>066-NYZ062>081-172300-
EAST


CITY           SKY/WX    TMP DP  RH WIND       PRES   REMARKS
ALBANY         MOSUNNY   63  47  55 NW17G26   29.92R
GLENS FALLS    MOSUNNY   66  42  41 W9        29.87S
POUGHKEEPSIE   CLOUDY    68  51  54 NW10G17   29.90R
NEWBURGH       PTSUNNY   66  54  63 W16       29.92R
MONTGOMERY     CLOUDY    68  30  24 NW8       29.91R
WHITE PLAINS   CLOUDY    68  53  58 SW3       29.89F
ISLIP          PTSUNNY   62  54  74 SW10      29.90F
NEW YORK CITY  PTSUNNY   70  53  54 W10       29.89F
CENTRAL PARK   MOSUNNY   70  52  52 MISG      29.92F
$$

NYZ005>009-017-018-044>046-055-056-172300-
CENTRAL


CITY           SKY/WX    TMP DP  RH WIND       PRES   REMARKS
FULTON         SUNNY     60  46  59 W12       29.95S
SYRACUSE       MOSUNNY   60  48  64 W12       29.95F
ROME           MOSUNNY   58  47  66 W9        29.96F
ELMIRA         SUNNY     67  46  47 NW10      29.95S
BINGHAMTON     MOSUNNY   60  49  66 N12       29.96S
MONTICELLO     PTSUNNY   61  52  72 NW7       29.96S
$$

NYZ026>034-041>043-172300-
NORTH


CITY           SKY/WX    TMP DP  RH WIND       PRES   REMARKS
WATERTOWN      SUNNY     55  47  74 SW10      29.93S
FORT DRUM      NOT AVBL
MASSENA        SUNNY     64  43  46 SW15G21   29.85S
SARANAC LAKE   SUNNY     59  37  44 W9        29.86S
PLATTSBURGH    SUNNY     67  34  29 NW8       29.82S
$$

NYZ001>004-010>016-019>021-172300-
WEST


CITY           SKY/WX    TMP DP  RH WIND       PRES   REMARKS
NIAGARA FALLS  MOSUNNY   59  48  67 SW14      29.97F
BUFFALO        SUNNY     54  46  74 SW13      29.99S
DUNKIRK        SUNNY     60  46  59 SW14      30.01S
JAMESTOWN      MOSUNNY   61  43  51 NW14      30.02S
WELLSVILLE     SUNNY     63  40  42 NW10      30.00S
ROCHESTER      MOSUNNY   64  49  57 SW10      29.96S
PENN YAN       SUNNY     64  45  49 VRB6      29.98R
$$

             KEY
       WCI = WIND CHILL INDEX
       VSB = VISIBILITY
       HX  = HEAT INDEX
$$


USA.gov is the U.S. government's official web portal to all federal, state and local government web resources and services.